Weather History for Sidney-Richland, MT

Change the Weather History Date:

Wednesday, January 15, 2014

  Actual Average Record
Temperature  
Mean Temperature 36 °F -  
Max Temperature 44 °F 26 °F 58 °F (1921)
Min Temperature 28 °F 0 °F -31 °F (1971)
Degree Days  
Heating Degree Days 29    
Moisture  
Dew Point 27 °F    
Average Humidity 65    
Maximum Humidity 93    
Minimum Humidity 53    
Precipitation  
Precipitation 0.00 in - - ()
Sea Level Pressure  
Sea Level Pressure 29.77 in    
Wind  
Wind Speed 16 mph (West)    
Max Wind Speed 33 mph    
Max Gust Speed 44 mph    
Visibility 10 miles    
Events      
Averages and records for this station are not official NWS values.
T = Trace of Precipitation, MM = Missing Value Source: NWS Daily Summary

Daily Weather History Graph

Daily Weather History Graph

Search for Another Location

Airport:

Trip Planner

Search our weather history database for the weather conditions in past years. The results will help you decide how hot, cold, wet, or windy it might be!

Date:

Astronomy

Jan. 15, 2014 Rise Set
Actual Time 7:40 AM MST 4:32 PM MST
Civil Twilight 7:05 AM MST 5:07 PM MST
Nautical Twilight 6:27 AM MST 5:45 PM MST
Astronomical Twilight 5:50 AM MST 6:22 PM MST
Moon 4:36 PM MST (1/15) 6:54 AM MST (1/15)
Length of Visible Light 10h 01m
Length of Day
8h 51m
Full, 100% of the Moon is Illuminated
Jan 15
Full
Jan 15
Full
Jan 23
Last Quarter
Jan 30
New
Feb 6
First Quarter

Hourly Weather History & Observations

Time (MST) Temp. Windchill Dew Point Humidity Pressure Visibility Wind Dir Wind Speed Gust Speed Precip Events Conditions
12:15 AM 28.4 °F 19.7 °F 24.8 °F 86% 29.97 in 10.0 mi SSW 9.2 mph - N/A   Overcast
12:35 AM 28.4 °F 19.7 °F 26.6 °F 93% 29.97 in 10.0 mi SSW 9.2 mph - N/A   Overcast
12:55 AM 28.4 °F 19.1 °F 26.6 °F 93% 29.95 in 10.0 mi SSW 10.4 mph - N/A   Overcast
1:15 AM 28.4 °F 19.1 °F 24.8 °F 86% 29.93 in 10.0 mi SSW 10.4 mph - N/A   Mostly Cloudy
1:35 AM 28.4 °F 20.4 °F 24.8 °F 86% 29.91 in 10.0 mi South 8.1 mph - N/A   Scattered Clouds
1:55 AM 28.4 °F 24.6 °F 26.6 °F 93% 29.90 in 10.0 mi SSW 3.5 mph - N/A   Overcast
2:15 AM 28.4 °F 18.0 °F 26.6 °F 93% 29.87 in 10.0 mi SSW 12.7 mph - N/A   Overcast
2:35 AM 28.4 °F 22.2 °F 24.8 °F 86% 29.88 in 10.0 mi SSW 5.8 mph - N/A   Overcast
2:55 AM 28.4 °F 23.3 °F 26.6 °F 93% 29.86 in 10.0 mi SSE 4.6 mph - N/A   Overcast
3:15 AM 30.2 °F 25.4 °F 26.6 °F 86% 29.84 in 10.0 mi South 4.6 mph - N/A   Overcast
3:35 AM 37.4 °F 29.3 °F 30.2 °F 75% 29.82 in 10.0 mi SW 12.7 mph - N/A   Overcast
3:55 AM 37.4 °F 29.3 °F 30.2 °F 75% 29.81 in 10.0 mi SW 12.7 mph - N/A   Overcast
4:15 AM 37.4 °F 32.1 °F 30.2 °F 75% 29.80 in 10.0 mi SW 6.9 mph - N/A   Overcast
4:35 AM 37.4 °F 30.3 °F 30.2 °F 75% 29.79 in 10.0 mi WSW 10.4 mph - N/A   Overcast
4:55 AM 37.4 °F 29.8 °F 30.2 °F 75% 29.77 in 10.0 mi West 11.5 mph - N/A   Overcast
5:15 AM 39.2 °F 30.2 °F 30.2 °F 70% 29.75 in 10.0 mi WSW 17.3 mph 21.9 mph N/A   Overcast
5:35 AM 39.2 °F 30.8 °F 30.2 °F 70% 29.74 in 10.0 mi WSW 15.0 mph 21.9 mph N/A   Overcast
5:55 AM 39.2 °F 32.5 °F 30.2 °F 70% 29.74 in 10.0 mi WSW 10.4 mph - N/A   Overcast
6:35 AM 39.2 °F 30.8 °F 30.2 °F 70% 29.73 in 10.0 mi WSW 15.0 mph 19.6 mph N/A   Overcast
6:55 AM 39.2 °F 31.2 °F 30.2 °F 70% 29.70 in 10.0 mi WSW 13.8 mph 20.7 mph N/A   Mostly Cloudy
7:15 AM 39.2 °F 32.0 °F 30.2 °F 70% 29.69 in 10.0 mi West 11.5 mph 18.4 mph N/A   Partly Cloudy
7:35 AM 41.0 °F 32.2 °F 28.4 °F 61% 29.70 in 10.0 mi West 18.4 mph 25.3 mph N/A   Partly Cloudy
7:55 AM 41.0 °F 32.2 °F 30.2 °F 65% 29.69 in 10.0 mi West 18.4 mph 25.3 mph N/A   Mostly Cloudy
8:15 AM 41.0 °F 31.6 °F 28.4 °F 61% 29.68 in 10.0 mi West 20.7 mph 26.5 mph N/A   Mostly Cloudy
8:35 AM 42.8 °F 33.5 °F 28.4 °F 57% 29.67 in 10.0 mi West 23.0 mph 33.4 mph N/A   Mostly Cloudy
8:55 AM 42.8 °F 32.1 °F 28.4 °F 57% 29.67 in 10.0 mi West 31.1 mph 40.3 mph N/A   Mostly Cloudy
9:15 AM 42.8 °F 33.1 °F 28.4 °F 57% 29.67 in 10.0 mi West 25.3 mph 35.7 mph N/A   Partly Cloudy
9:36 AM 42.8 °F 33.1 °F 28.4 °F 57% 29.68 in 10.0 mi West 25.3 mph 33.4 mph N/A   Clear
9:55 AM 42.8 °F 33.1 °F 28.4 °F 57% 29.68 in 10.0 mi West 25.3 mph 34.5 mph N/A   Clear
10:15 AM 42.8 °F 32.7 °F 30.2 °F 61% 29.69 in 10.0 mi West 27.6 mph 36.8 mph N/A   Clear
10:35 AM 41.0 °F 30.7 °F 30.2 °F 65% 29.69 in 10.0 mi West 25.3 mph 34.5 mph N/A   Clear
10:55 AM 42.8 °F 33.1 °F 30.2 °F 61% 29.68 in 10.0 mi West 25.3 mph 33.4 mph N/A   Clear
11:15 AM 42.8 °F 32.9 °F 30.2 °F 61% 29.68 in 10.0 mi West 26.5 mph 34.5 mph N/A   Clear
11:35 AM 42.8 °F 33.1 °F 30.2 °F 61% 29.69 in 10.0 mi West 25.3 mph 32.2 mph N/A   Clear
11:55 AM 42.8 °F 33.3 °F 30.2 °F 61% 29.70 in 10.0 mi West 24.2 mph 32.2 mph N/A   Clear
12:15 PM 42.8 °F 34.5 °F 30.2 °F 61% 29.69 in 10.0 mi West 18.4 mph 27.6 mph N/A   Partly Cloudy
12:35 PM 42.8 °F 34.3 °F 30.2 °F 61% 29.67 in 10.0 mi West 19.6 mph 26.5 mph N/A   Partly Cloudy
12:55 PM 42.8 °F 34.5 °F 30.2 °F 61% 29.66 in 10.0 mi West 18.4 mph 24.2 mph N/A   Scattered Clouds
1:15 PM 42.8 °F 34.5 °F 30.2 °F 61% 29.66 in 10.0 mi West 18.4 mph 29.9 mph N/A   Partly Cloudy
1:35 PM 42.8 °F 34.0 °F 30.2 °F 61% 29.67 in 10.0 mi West 20.7 mph - N/A   Clear
1:55 PM 42.8 °F 34.5 °F 30.2 °F 61% 29.67 in 10.0 mi West 18.4 mph 26.5 mph N/A   Clear
2:15 PM 44.6 °F 35.3 °F 28.4 °F 53% 29.70 in 10.0 mi WNW 26.5 mph 35.7 mph N/A   Clear
2:35 PM 42.8 °F 34.3 °F 30.2 °F 61% 29.71 in 10.0 mi WNW 19.6 mph 29.9 mph N/A   Partly Cloudy
2:55 PM 42.8 °F 35.1 °F 28.4 °F 57% 29.71 in 10.0 mi WNW 16.1 mph 23.0 mph N/A   Partly Cloudy
3:15 PM 42.8 °F 34.8 °F 26.6 °F 53% 29.72 in 10.0 mi WNW 17.3 mph 28.8 mph N/A   Scattered Clouds
3:35 PM 41.0 °F 32.2 °F 26.6 °F 57% 29.72 in 10.0 mi WNW 18.4 mph 29.9 mph N/A   Scattered Clouds
3:55 PM 41.0 °F 31.6 °F 26.6 °F 57% 29.72 in 10.0 mi WNW 20.7 mph 25.3 mph N/A   Partly Cloudy
4:15 PM 41.0 °F 31.1 °F 26.6 °F 57% 29.74 in 10.0 mi WNW 23.0 mph 32.2 mph N/A   Scattered Clouds
4:35 PM 41.0 °F 31.1 °F 24.8 °F 53% 29.72 in 10.0 mi WNW 23.0 mph 29.9 mph N/A   Scattered Clouds
4:55 PM 39.2 °F 27.6 °F 24.8 °F 56% 29.73 in 10.0 mi NW 28.8 mph 38.0 mph N/A   Scattered Clouds
5:15 PM 39.2 °F 28.0 °F 24.8 °F 56% 29.73 in 10.0 mi WNW 26.5 mph 34.5 mph N/A   Scattered Clouds
5:35 PM 39.2 °F 27.2 °F 24.8 °F 56% 29.73 in 10.0 mi WNW 31.1 mph 41.4 mph N/A   Clear
5:55 PM 37.4 °F 25.6 °F 24.8 °F 60% 29.74 in 10.0 mi WNW 26.5 mph 36.8 mph N/A   Clear
6:15 PM 37.4 °F 25.6 °F 24.8 °F 60% 29.75 in 10.0 mi WNW 26.5 mph 33.4 mph N/A   Clear
6:35 PM 37.4 °F 24.8 °F 23.0 °F 56% 29.75 in 10.0 mi WNW 31.1 mph 40.3 mph N/A   Clear
6:55 PM 37.4 °F 25.4 °F 24.8 °F 60% 29.76 in 10.0 mi WNW 27.6 mph 43.7 mph N/A   Clear
7:15 PM 37.4 °F 25.9 °F 23.0 °F 56% 29.77 in 10.0 mi WNW 25.3 mph 35.7 mph N/A   Clear
7:55 PM 37.4 °F 26.1 °F 23.0 °F 56% 29.79 in 10.0 mi WNW 24.2 mph 35.7 mph N/A   Clear
8:15 PM 37.4 °F 25.9 °F 23.0 °F 56% 29.79 in 10.0 mi WNW 25.3 mph 38.0 mph N/A   Clear
8:35 PM 35.6 °F 23.0 °F 23.0 °F 60% 29.80 in 10.0 mi NW 27.6 mph 39.1 mph N/A   Clear
8:55 PM 35.6 °F 23.0 °F 23.0 °F 60% 29.80 in 10.0 mi NW 27.6 mph 34.5 mph N/A   Clear
9:15 PM 35.6 °F 22.5 °F 23.0 °F 60% 29.81 in 10.0 mi NW 29.9 mph 43.7 mph N/A   Clear
9:35 PM 37.4 °F 24.4 °F 23.0 °F 56% 29.81 in 10.0 mi NW 33.4 mph 41.4 mph N/A   Partly Cloudy
9:55 PM 35.6 °F 23.2 °F 21.2 °F 56% 29.83 in 10.0 mi NW 26.5 mph 38.0 mph N/A   Clear
10:15 PM 35.6 °F 24.0 °F 21.2 °F 56% 29.84 in 10.0 mi NW 23.0 mph 33.4 mph N/A   Clear
10:35 PM 35.6 °F 23.4 °F 21.2 °F 56% 29.86 in 10.0 mi NW 25.3 mph 35.7 mph N/A   Clear
10:55 PM 35.6 °F 23.7 °F 21.2 °F 56% 29.87 in 10.0 mi NW 24.2 mph 33.4 mph N/A   Clear
11:15 PM 35.6 °F 23.7 °F 21.2 °F 56% 29.88 in 10.0 mi NW 24.2 mph 33.4 mph N/A   Clear
11:35 PM 33.8 °F 21.9 °F 21.2 °F 60% 29.89 in 10.0 mi NW 21.9 mph 31.1 mph N/A   Clear
11:55 PM 33.8 °F 21.9 °F 21.2 °F 60% 29.89 in 10.0 mi NW 21.9 mph 29.9 mph N/A   Clear